Вернуться в каталог

IRIDIUM 170

АктивенСвязьPO
NORAD 43930·PAYLOAD·🇺🇸 United States

Запущен Jan 11, 2019 с Vandenberg Space Force Base

Loading…

Ближайшие Пролёты (ближайшие 24 часа)

TLE

СвежийSource: CelesTrak SupGP

Эпоха: Sep 14, 2026, 20:38 UTC

1 43930C 19002J   26257.86006944 -.00001038  00000+0 -16493-3 0  2576
2 43930  86.6095 316.0673 0002544  96.1916 144.9385 14.72258050    17

Отслеживайте IRIDIUM 170 в реальном времени с AllMySat

Download on the App Store